When you browse on this site, cookies collect data to enhance your experience and personalize the content and advertising you see.
Visit our Privacy Policy to learn more. By continuing to use the site, you agree to this use of cookies and data.
  • En España
  • Lista de países
  • Para 7 días
  • Temperatura del agua
  • Mapa Satelital
  • El tiempo en el mapa
  • Informadores
  • user-avatar
    Iniciar sesión

    Tiempo cada hora Huntsville

    Hoy, 22 Abril, Lunes

    Tiempo Temperatura Precipitaciones Viento Presión Humedad
    00:00 +14°C° 0 mm 2 mps 747 mmHg 59%
    01:00 +13°C° 0 mm 1 mps 747 mmHg 61%
    02:00 +13°C° 0 mm 1 mps 747 mmHg 64%
    03:00 +13°C° 0 mm 1 mps 747 mmHg 66%
    04:00 +13°C° 0 mm 1 mps 748 mmHg 69%
    05:00 +13°C° 0 mm 1 mps 748 mmHg 71%
    06:00 +13°C° 0 mm 1 mps 748 mmHg 74%
    07:00 +16°C° 0 mm 1 mps 748 mmHg 68%
    08:00 +20°C° 0 mm 1 mps 749 mmHg 63%
    09:00 +22°C° 0 mm 1 mps 749 mmHg 58%
    10:00 +24°C° 0 mm 2 mps 748 mmHg 54%
    11:00 +25°C° 0 mm 2 mps 748 mmHg 50%
    12:00 +27°C° 0 mm 2 mps 748 mmHg 46%
    13:00 +27°C° 0 mm 2 mps 748 mmHg 46%
    14:00 +27°C° 0 mm 2 mps 747 mmHg 46%
    15:00 +27°C° 0 mm 2 mps 747 mmHg 46%
    16:00 +26°C° 0 mm 2 mps 747 mmHg 52%
    17:00 +24°C° 0 mm 1 mps 746 mmHg 58%
    18:00 +20°C° 0 mm 0 mps 746 mmHg 65%
    19:00 +19°C° 0 mm 0 mps 746 mmHg 68%
    20:00 +18°C° 0 mm 0 mps 747 mmHg 71%
    21:00 +17°C° 0 mm 0 mps 747 mmHg 75%
    22:00 +16°C° 0 mm 0 mps 747 mmHg 77%
    23:00 +18°C° 0 mm 1 mps 747 mmHg 79%

    Mañana, 23 Abril, Martes

    Tiempo Temperatura Precipitaciones Viento Presión Humedad
    00:00 +16°C° 0 mm 1 mps 747 mmHg 81%
    01:00 +16°C° 0 mm 1 mps 747 mmHg 82%
    02:00 +15°C° 0 mm 1 mps 747 mmHg 84%
    03:00 +15°C° 0 mm 1 mps 746 mmHg 85%
    04:00 +15°C° 0 mm 1 mps 746 mmHg 85%
    05:00 +15°C° 0 mm 1 mps 747 mmHg 84%
    06:00 +16°C° 0 mm 1 mps 747 mmHg 84%
    07:00 +19°C° 0 mm 1 mps 747 mmHg 77%
    08:00 +21°C° 0 mm 1 mps 747 mmHg 69%
    09:00 +24°C° 0 mm 2 mps 747 mmHg 62%
    10:00 +25°C° 0 mm 2 mps 747 mmHg 58%
    11:00 +26°C° 0 mm 3 mps 747 mmHg 54%
    12:00 +27°C° 0 mm 3 mps 746 mmHg 51%
    13:00 +27°C° 0 mm 3 mps 746 mmHg 51%
    14:00 +27°C° 0 mm 3 mps 745 mmHg 52%
    15:00 +27°C° 0 mm 3 mps 745 mmHg 53%
    16:00 +26°C° 0 mm 3 mps 745 mmHg 57%
    17:00 +24°C° 0 mm 2 mps 745 mmHg 62%
    18:00 +23°C° 0 mm 1 mps 744 mmHg 67%
    19:00 +22°C° 0 mm 1 mps 745 mmHg 70%
    20:00 +20°C° 0 mm 1 mps 745 mmHg 73%
    21:00 +17°C° 0 mm 0 mps 745 mmHg 77%
    22:00 +17°C° 0 mm 0 mps 745 mmHg 79%
    23:00 +16°C° 0 mm 0 mps 745 mmHg 81%

    Pasado mañana, 24 Abril, Miércoles

    Tiempo Temperatura Precipitaciones Viento Presión Humedad
    00:00 +15°C° 0 mm 0 mps 744 mmHg 82%
    01:00 +15°C° 0 mm 0 mps 744 mmHg 83%
    02:00 +14°C° 0 mm 0 mps 744 mmHg 84%
    03:00 +15°C° 0 mm 1 mps 744 mmHg 85%
    04:00 +15°C° 0 mm 1 mps 744 mmHg 84%
    05:00 +16°C° 0 mm 1 mps 744 mmHg 83%
    06:00 +16°C° 0 mm 1 mps 744 mmHg 83%
    07:00 +19°C° 0 mm 1 mps 744 mmHg 75%
    08:00 +20°C° 0 mm 2 mps 744 mmHg 68%
    09:00 +24°C° 0 mm 2 mps 744 mmHg 61%
    10:00 +25°C° 0 mm 3 mps 744 mmHg 58%
    11:00 +26°C° 0 mm 3 mps 744 mmHg 56%
    12:00 +27°C° 0 mm 3 mps 744 mmHg 53%
    13:00 +27°C° 0 mm 3 mps 743 mmHg 53%
    14:00 +28°C° 0 mm 3 mps 742 mmHg 52%
    15:00 +28°C° 0 mm 3 mps 742 mmHg 52%
    16:00 +27°C° 0 mm 3 mps 742 mmHg 57%
    17:00 +25°C° 0 mm 2 mps 742 mmHg 63%
    18:00 +24°C° 0 mm 2 mps 742 mmHg 68%
    19:00 +23°C° 0 mm 1 mps 742 mmHg 70%
    20:00 +22°C° 0 mm 1 mps 742 mmHg 72%
    21:00 +21°C° 0 mm 1 mps 742 mmHg 75%
    22:00 +19°C° 0 mm 0 mps 742 mmHg 77%
    23:00 +19°C° 0 mm 0 mps 742 mmHg 79%

    25 Abril, Jueves

    Tiempo Temperatura Precipitaciones Viento Presión Humedad
    00:00 +18°C° 0 mm 0 mps 742 mmHg 81%
    01:00 +18°C° 0 mm 0 mps 742 mmHg 82%
    02:00 +20°C° 0 mm 1 mps 742 mmHg 83%
    03:00 +20°C° 0 mm 1 mps 742 mmHg 84%
    04:00 +20°C° 0 mm 1 mps 742 mmHg 86%
    05:00 +19°C° 0 mm 1 mps 743 mmHg 87%
    06:00 +19°C° 0 mm 1 mps 743 mmHg 89%
    07:00 +21°C° 0 mm 1 mps 743 mmHg 82%
    08:00 +23°C° 0 mm 2 mps 743 mmHg 76%
    09:00 +25°C° 0 mm 2 mps 743 mmHg 70%
    10:00 +26°C° 0 mm 2 mps 743 mmHg 65%
    11:00 +27°C° 0 mm 3 mps 743 mmHg 59%
    12:00 +28°C° 0 mm 3 mps 742 mmHg 54%
    13:00 +28°C° 0.2 mm 4 mps 742 mmHg 58%
    14:00 +27°C° 0.2 mm 4 mps 741 mmHg 61%
    15:00 +27°C° 0.2 mm 4 mps 741 mmHg 65%
    16:00 +25°C° 0 mm 4 mps 741 mmHg 68%
    17:00 +24°C° 0 mm 3 mps 741 mmHg 71%
    18:00 +21°C° 0 mm 2 mps 741 mmHg 74%
    19:00 +20°C° 0.2 mm 2 mps 742 mmHg 78%
    20:00 +20°C° 0.2 mm 2 mps 742 mmHg 81%
    21:00 +20°C° 0.2 mm 1 mps 743 mmHg 85%
    22:00 +20°C° 0.3 mm 1 mps 743 mmHg 87%
    23:00 +19°C° 0.3 mm 1 mps 742 mmHg 89%

    26 Abril, Viernes

    Tiempo Temperatura Precipitaciones Viento Presión Humedad
    00:00 +19°C° 0.3 mm 1 mps 742 mmHg 91%
    01:00 +19°C° 0.2 mm 1 mps 742 mmHg 92%
    02:00 +19°C° 0.2 mm 1 mps 741 mmHg 93%
    03:00 +16°C° 0.2 mm 0 mps 741 mmHg 94%
    04:00 +16°C° 0.6 mm 0 mps 741 mmHg 94%
    05:00 +18°C° 0.6 mm 1 mps 742 mmHg 95%
    06:00 +19°C° 0.6 mm 1 mps 742 mmHg 95%
    07:00 +20°C° 0 mm 1 mps 742 mmHg 88%
    08:00 +22°C° 0 mm 1 mps 742 mmHg 81%
    09:00 +23°C° 0 mm 2 mps 743 mmHg 75%
    10:00 +24°C° 0.1 mm 2 mps 742 mmHg 69%
    11:00 +26°C° 0.1 mm 2 mps 742 mmHg 64%
    12:00 +27°C° 0.1 mm 2 mps 742 mmHg 58%
    13:00 +27°C° 0.1 mm 3 mps 742 mmHg 60%
    14:00 +27°C° 0.1 mm 3 mps 741 mmHg 61%
    15:00 +27°C° 0.1 mm 4 mps 741 mmHg 63%
    16:00 +25°C° 0 mm 4 mps 741 mmHg 67%
    17:00 +24°C° 0 mm 3 mps 742 mmHg 71%
    18:00 +22°C° 0 mm 3 mps 742 mmHg 76%
    19:00 +21°C° 0 mm 3 mps 742 mmHg 78%
    20:00 +20°C° 0 mm 3 mps 743 mmHg 81%
    21:00 +19°C° 0 mm 4 mps 743 mmHg 84%
    22:00 +18°C° 0 mm 3 mps 743 mmHg 87%
    23:00 +17°C° 0 mm 3 mps 743 mmHg 89%

    27 Abril, Sábado

    Tiempo Temperatura Precipitaciones Viento Presión Humedad
    00:00 +16°C° 0 mm 2 mps 742 mmHg 91%
    01:00 +15°C° 0 mm 2 mps 742 mmHg 91%
    02:00 +15°C° 0 mm 2 mps 742 mmHg 91%
    03:00 +14°C° 0 mm 2 mps 742 mmHg 91%
    04:00 +15°C° 0 mm 2 mps 742 mmHg 90%
    05:00 +15°C° 0 mm 2 mps 742 mmHg 88%
    06:00 +15°C° 0 mm 1 mps 743 mmHg 87%
    07:00 +17°C° 0 mm 2 mps 743 mmHg 81%
    08:00 +20°C° 0 mm 3 mps 743 mmHg 75%
    09:00 +23°C° 0 mm 4 mps 743 mmHg 70%
    10:00 +25°C° 0 mm 4 mps 743 mmHg 66%
    11:00 +26°C° 0 mm 4 mps 742 mmHg 62%
    12:00 +27°C° 0 mm 4 mps 742 mmHg 58%
    13:00 +28°C° 0 mm 3 mps 741 mmHg 57%
    14:00 +28°C° 0 mm 3 mps 741 mmHg 56%
    15:00 +29°C° 0 mm 2 mps 740 mmHg 55%
    16:00 +27°C° 0.1 mm 2 mps 740 mmHg 60%
    17:00 +26°C° 0.1 mm 1 mps 740 mmHg 66%
    18:00 +25°C° 0.1 mm 1 mps 740 mmHg 71%
    19:00 +24°C° 0 mm 1 mps 741 mmHg 74%
    20:00 +22°C° 0 mm 1 mps 741 mmHg 77%
    21:00 +21°C° 0 mm 1 mps 742 mmHg 79%
    22:00 +21°C° 0 mm 1 mps 741 mmHg 80%
    23:00 +21°C° 0 mm 1 mps 741 mmHg 80%
    Mostrar más